This is the latest recevied weather packets stored in our database for station/object N8ESC. If no packets are shown the sender has not sent any weather packets the latest 10 day(s).
| Time | Temp. | Humidity | Pressure | Rain* | Wind** | Luminosity | Snow |
|---|---|---|---|---|---|---|---|
| 1777902822 | 11.11° C | 68% | 992.1 hPa | 0 mm | - | 245 W/m² | - |
| 1777902520 | 11.11° C | 69% | 992.2 hPa | 0 mm | - | 256 W/m² | - |
| 1777902216 | 10.56° C | 71% | 992.4 hPa | 0 mm | - | 227 W/m² | - |
| 1777901914 | 10.56° C | 72% | 992.5 hPa | 0 mm | - | 172 W/m² | - |
| 1777901612 | 10.56° C | 73% | 992.8 hPa | 0 mm | - | 212 W/m² | - |
| 1777901308 | 10° C | 74% | 992.8 hPa | 0 mm | - | 192 W/m² | - |
| 1777901006 | 10° C | 75% | 993 hPa | 0 mm | - | 174 W/m² | - |
| 1777900704 | 10° C | 76% | 993 hPa | 0 mm | - | 187 W/m² | - |
| 1777900400 | 10° C | 77% | 993.2 hPa | 0 mm | - | 159 W/m² | - |
| 1777900097 | 10° C | 78% | 993.1 hPa | 0 mm | - | 166 W/m² | - |
| 1777899794 | 10° C | 78% | 993.3 hPa | 0 mm | - | 163 W/m² | - |
| 1777899490 | 9.44° C | 79% | 993.5 hPa | 0 mm | - | 147 W/m² | - |
| 1777898338 | 8.33° C | 82% | 993.8 hPa | 0 mm | - | 114 W/m² | - |
| 1777898035 | 8.33° C | 82% | 993.8 hPa | 0 mm | - | 114 W/m² | - |
| 1777897731 | 8.33° C | 82% | 993.8 hPa | 0 mm | - | 114 W/m² | - |
| 1777897428 | 8.33° C | 82% | 993.8 hPa | 0 mm | - | 101 W/m² | - |
| 1777897124 | 8.33° C | 81% | 994 hPa | 0 mm | - | 91 W/m² | - |
| 1777896820 | 8.33° C | 81% | 993.9 hPa | 0 mm | - | 83 W/m² | - |
| 1777896518 | 8.33° C | 81% | 994 hPa | 0 mm | - | 82 W/m² | - |
| 1777896215 | 8.33° C | 81% | 994.3 hPa | 0 mm | - | 72 W/m² | - |
| 1777895913 | 8.33° C | 81% | 994.2 hPa | 0 mm | - | 64 W/m² | - |
| 1777895610 | 8.33° C | 83% | 994.4 hPa | 0 mm | - | 63 W/m² | - |
| 1777895307 | 7.78° C | 83% | 994.5 hPa | 0 mm | - | 57 W/m² | - |
| 1777895005 | 7.78° C | 84% | 994.6 hPa | 0 mm | - | 53 W/m² | - |
| 1777894702 | 7.78° C | 84% | 994.8 hPa | 0 mm | - | 45 W/m² | - |
* Rain latest hour (hover to see other rain measurements)
** Current wind speed in m/s (hover to see current wind gust speed)